Hourly Data Report for October 01, 2015

All times are specified in Local Standard Time (LST). Add 1 hour to adjust for Daylight Saving Time where and when it is observed.

CORAL HARBOUR A
NUNAVUT

64°11'36.000" N
83°21'34.000" W
62.20 m
2301002
71915
YZS

Download Data

Hourly Data (October 2015)
Hourly Data Report for October 1, 2015
Temp Definition
°C
Dew Point Temp Definition
°C
Rel Hum Definition
%
Wind Dir Definition
10's deg

Wind Spd Definition
km/h
Visibility Definition
km
Stn Press Definition
kPa
Hmdx Definition


Wind Chill Definition


Weather Definition


TIME
00:00 Legend Double Dagger -1.5 -4.2 82 23 22 24.1 101.81   -7 LegendNANA
01:00 Legend Double Dagger -1.2 -3.9 82 22 23 24.1 101.81   -7 Cloudy
02:00 Legend Double Dagger -0.6 -3.1 83 22 29 24.1 101.81   -7 LegendNANA
03:00 Legend Double Dagger -0.5 -2.3 88 22 23 24.1 101.80   -6 LegendNANA
04:00 Legend Double Dagger 0.1 -2.3 84 22 23 24.1 101.76     Cloudy
05:00 Legend Double Dagger 0.2 -1.7 87 20 18 24.1 101.71     LegendNANA
06:00 Legend Double Dagger 0.5 -1.1 89 19 21 24.1 101.66     LegendNANA
07:00 Legend Double Dagger 0.6 -0.9 90 21 24 24.1 101.61     Cloudy
08:00 Legend Double Dagger 1.0 -0.6 89 21 31 24.1 101.56     LegendNANA
09:00 Legend Double Dagger 1.1 -0.1 92 21 28 24.1 101.54     Rain
10:00 Legend Double Dagger 1.2 0.2 93 21 30 19.3 101.51     Rain
11:00 Legend Double Dagger 1.3 0.3 93 20 33 19.3 101.47     Rain
12:00 Legend Double Dagger 1.6 0.7 94 20 30 19.3 101.41     Rain
13:00 Legend Double Dagger 2.0 1.1 94 20 30 24.1 101.38     Rain
14:00 Legend Double Dagger 2.5 1.3 92 21 36 24.1 101.31     LegendNANA
15:00 Legend Double Dagger 2.4 1.4 93 21 30 24.1 101.24     LegendNANA
16:00 Legend Double Dagger 2.1 1.2 94 21 37 19.3 101.18     Cloudy
17:00 Legend Double Dagger 2.1 1.2 94 20 34 19.3 101.13     LegendNANA
18:00 Legend Double Dagger 1.8 1.2 96 20 26 4.8 101.11     Fog
19:00 Legend Double Dagger 2.2 1.8 97 21 19 24.1 101.13     Cloudy
20:00 Legend Double Dagger 2.2 1.8 97 21 11 24.1 101.13     LegendNANA
21:00 Legend Double Dagger 1.8 1.5 98 6 6 24.1 101.22     LegendNANA
22:00 Legend Double Dagger 1.8 1.7 99 29 5 1.6 101.24     Fog
23:00 Legend Double Dagger 1.7 1.6 99 34 4 0.4 101.35     Fog

Notes on Data Quality.

Legend

  • E = Estimated
  • M = Missing
  • NA = Not Available
  • ‡ = Partner data that is not subject to review by the National Climate Archives
Date modified: